Showing default

COSMOS 2322, 23704

Orbit data source: Space-Track

COSMOS 2322, 23704 is a payload satellite owned by GRU (CIS) in LEO that was launched on Tue, 31 Oct 1995 UTC via a ZENIT-2 launch vehicle from the Tyuratam Missile And Space Complex (TTMTR). Payload-class satellites include a variety of spacecraft equipped with specific instruments for various scientific and technological missions. These include communications satellites like Starlink; space stations such as the ISS; scientific satellites like the Hubble; Earth observation satellites from companies like Planet Labs, Umbra, and HawkEye 360; GPS; miniature CubeSats for education and research; and military/defense satellites.

Loading next visibility...
Identifier
23704, 1995-058A
Orbit
LEO
Country
Flag of CISCIS
Related business
Manufacturer
Yuzhnoe
Mission
Defense Sigint
Bus & Motor
TSELINA-2, Unknown motor
Mass
3,250 kg wet, 3,250 kg dry
Launch date (UTC)
1995-10-31 (31 years ago)
Launch vehicle
ZENIT-2
Launch site
Tyuratam Missile And Space Complex (TTMTR)
Object type
Payload
Rocket body
Debris
Shape & HBR
Cyl, 2.4 m
Radar Cross Section
5.718 m², Large (>1 m²)

Expand to show TLE details & history
Last TLE update: 12 hours ago

TLE from 12 hours ago
0 COSMOS 2322
1 23704U 95058A   26266.85073714  .00000322  00000-0  19496-3 0  9999
2 23704  70.9843 145.8901 0009310 357.1699   2.9368 14.13830154594062
Epoch: 2026-09-23T20:25Z
TLE epoch observation values (Epoch: 2026-09-23T20:25:03.688Z)
Latitude
-0.0001°
Longitude
-163.07124°
Altitude
841.974 km
Speed
7.436 km/s
True Right ascension
09h 43m 33s
True Declination
0° 00' 00"
Sunlit
Object was in daylight at epoch
Visualization orbit readout
Latitude
Unknown
Longitude
Unknown
Altitude
Unknown
Speed
Unknown
Apparent Right ascension
Unknown
Apparent Declination
Unknown
Sunlit
N/A
Visualization observer readout
Local Sidereal Time
01:20:39
Azimuth
Unknown
Elevation
Unknown
Doppler factor
Unknown
Orbital elements
Apogee altitude
850.946 km
Perigee altitude
837.498 km
Semi-major axis
7,222.359 km
Eccentricity
0.00093
Inclination
70.9843°
RAAN
145.8901°
Arg. of periapsis
357.1699°
True anomaly
2.94227°
Mean anomaly
2.9368°
Eccentric anomaly
2.93954°
Mean motion
3.5361 °/min
Orbital period
101.81 mins
BSTAR
0.00019496
Loading maneuver chart data...
Computing Atmospheric mass density...
Loading historical data...
Loading historical data...
Loading historical data...
Loading historical data...
Loading historical data...
Loading historical data...
Loading historical data...

Documentation

Showing up to 5 results
|